Location: Eckley
(40.9930°N, 75.8630°W)
Time: 01:59:16
(UTC-04:00)

Daily predictions for brighter satellites

Satellite Brightness Start Highest point End
(mag) Time Altitude Azimuth Time Altitude Azimuth Time Altitude Azimuth
CZ-2C R/B 4.4 00:01:38 10° NE 00:04:42 16° E 00:04:42 16° E
Cosmos 2219 Rocket 3.4 00:00:34 10° NW 00:05:16 28° WSW 00:06:29 26° SW
Cosmos 2184 Rocket 4.1 00:08:33 50° SE 00:09:45 58° E 00:15:48 10° NNE
CZ-4B R/B 3.1 00:10:33 29° NE 00:10:33 29° NE 00:12:54 10° N
NOSS 2-3 (C) 3.9 00:09:54 62° ESE 00:09:54 62° ESE 00:15:18 10° NE
Cosmos 1125 Rocket 3.7 00:10:02 49° SW 00:11:21 69° WNW 00:16:41 10° NNE
Meteor 1-26 Rocket 4.1 00:07:05 10° N 00:12:44 85° ENE 00:13:42 63° SSE
SeaSat 1 2.3 00:12:26 74° SSE 00:12:55 86° WSW 00:17:52 10° NNW
Cosmos 1048 Rocket 3.9 00:07:42 10° NNW 00:13:06 85° WSW 00:13:46 69° S
Lacrosse 4 Rocket 1.6 00:20:35 10° NNW 00:24:39 70° WNW 00:24:39 70° WNW
NOSS 2-3 (D) 3.8 00:30:30 77° SSW 00:30:53 89° SE 00:36:31 10° NE
ASTEX 1 3.4 00:26:19 10° NNE 00:31:11 66° E 00:31:11 66° E
Cosmos 2237 Rocket 3.6 00:30:48 10° NW 00:35:19 25° WSW 00:36:00 24° WSW
Aureole 2 Rocket 4.2 00:32:49 10° N 00:34:34 30° N 00:34:34 30° N
Cosmos 1733 Rocket 3.5 00:41:41 56° ENE 00:41:41 56° ENE 00:45:35 10° NNE
Cosmos 372 Rocket 4.2 00:40:24 55° WSW 00:41:15 64° WNW 00:46:28 10° NNE
Cosmos 158 Rocket 3.8 00:36:29 10° NNW 00:41:49 90° WSW 00:42:06 81° SSE
Landsat 5 3.7 00:42:32 76° NE 00:42:32 76° NE 00:46:52 10° N
Meteor 2-3 Rocket 3.7 00:41:29 61° SW 00:42:27 77° W 00:48:12 10° N
MOS 1-B Rocket 4.4 00:41:17 41° ESE 00:42:40 50° ENE 00:48:03 10° N
Cosmos 1892 3.7 00:44:30 44° NNE 00:44:30 44° NNE 00:47:14 10° NNE
ALOS 2 2.9 00:48:22 61° WNW 00:48:22 61° WNW 00:52:19 10° NNW
Meteor 1-10 Rocket 4.5 00:42:12 10° N 00:48:07 65° E 00:49:10 55° SE
Cosmos 44 3.9 00:48:37 48° E 00:48:37 48° E 00:53:25 10° NE
COSMOS 2455 3.3 00:43:29 10° NW 00:49:10 45° WSW 00:49:34 44° WSW
H-2A R/B 2.8 00:45:55 10° N 00:49:51 62° NW 00:49:51 62° NW
ATLAS 2AS CENTAUR R/B 4.1 00:51:51 10° WSW 00:58:59 41° NW 01:06:35 10° NNE
Cosmos 1825 3.9 01:10:18 26° ENE 01:10:18 26° ENE 01:12:40 10° NNE
Helios 1A Rocket 3.3 01:08:14 10° N 01:11:55 61° NNW 01:11:55 61° NNW
Okean 2 Rocket 4.4 01:13:58 30° E 01:13:58 30° E 01:17:42 10° NNE
Cosmos 1782 3.5 01:10:53 10° N 01:14:00 53° NNW 01:14:00 53° NNW
Nadezhda 3 Rocket 3.9 01:09:19 10° N 01:15:34 88° W 01:16:43 62° S
ATLAS 3B R/B 3.4 01:10:56 10° NW 01:16:59 34° WSW 01:17:16 34° WSW
Cosmos 2251 Rocket 3.7 01:14:10 10° NNW 01:19:20 56° WSW 01:19:20 56° WSW
Cosmos 2263 Rocket 3.0 01:19:12 36° ESE 01:19:26 36° ESE 01:24:35 10° NE
Cosmos 1340 Rocket 3.9 01:21:31 37° NW 01:21:31 37° NW 01:24:36 10° N
Geosat 4.1 01:16:31 10° NNE 01:21:32 69° WNW 01:22:08 62° WSW
Cosmos 44 Rocket 4.5 01:21:05 31° W 01:22:48 40° NW 01:27:45 10° NNE
CZ-2C R/B 3.5 01:21:35 50° SE 01:22:52 64° ENE 01:28:26 10° N
USA 238 DEB 3.7 01:17:32 10° NW 01:24:30 66° WSW 01:25:50 55° S
USA 238 3.7 01:17:38 10° NW 01:24:36 67° WSW 01:25:57 55° S
SL-16 R/B 3.8 01:23:52 10° NW 01:27:44 20° W 01:27:44 20° W
Cosmos 1674 Rocket 4.2 01:26:07 10° NNW 01:29:52 47° WNW 01:29:52 47° WNW
RESURS DK-1 4.1 01:36:20 24° E 01:36:20 24° E 01:38:53 10° NE
Cosmos 1607 3.8 01:31:12 10° NW 01:37:21 76° WSW 01:38:19 63° S
Cosmos 921 Rocket 3.4 01:38:18 53° NW 01:38:18 53° NW 01:42:03 10° N
PSLV R/B 4.2 01:39:15 63° NE 01:39:15 63° NE 01:42:54 10° N
CZ-4C R/B 2.8 01:32:39 10° NNW 01:39:49 84° ENE 01:43:31 35° SE
Cosmos 1975 Rocket 3.3 01:36:06 10° N 01:40:19 62° ENE 01:40:19 62° ENE
CZ-4B R/B 4.3 01:44:19 11° WNW 01:44:19 11° WNW 01:44:34 10° WNW
Cosmos 2154 Rocket 4.4 01:41:41 44° WSW 01:43:09 52° WNW 01:49:18 10° N
Meteor 1-27 Rocket 3.7 01:38:10 10° NNW 01:44:00 74° W 01:44:47 64° SSW
CZ-2C R/B 2.8 01:40:26 10° N 01:45:33 58° WNW 01:46:13 54° WSW
USA 234 4.1 01:40:32 10° ESE 01:46:45 48° NNE 01:52:58 10° NW
Cosmos 1908 Rocket 3.9 01:47:05 54° WNW 01:47:05 54° WNW 01:51:02 10° N
Cosmos 1943 3.1 01:46:40 10° NNW 01:52:23 83° WSW 01:53:14 65° S
Cosmos 1242 Rocket 4.3 01:49:55 10° NNE 01:52:43 25° ENE 01:52:43 25° ENE
Cosmos 1295 Rocket 4.5 01:52:21 56° SSW 01:53:47 77° W 02:00:09 10° N
Cosmos 1184 Rocket 4.5 01:55:58 31° NE 01:55:58 31° NE 01:58:09 10° NNE
PSLV R/B 4.4 01:53:06 10° NNE 01:56:56 39° E 01:56:56 39° E
Cosmos 1862 4.0 01:58:08 47° NW 01:58:08 47° NW 02:01:31 10° N
NOSS 3-2 (C) 4.0 01:50:44 10° NNW 01:58:17 80° NE 02:03:50 23° SE
Cosmos 1606 4.1 01:58:55 10° NNW 02:01:27 30° WNW 02:01:27 30° WNW
Cosmos 1238 Rocket 4.5 02:08:00 10° NNW 02:10:17 22° WNW 02:10:17 22° WNW
Cosmos 2151 Rocket 3.9 02:12:10 54° ESE 02:12:27 55° E 02:16:49 10° NNE
H-2A R/B 4.5 01:05:33 10° W 02:14:34 37° SW 02:17:25 34° SSW
NOSS 3-4 (A) 3.7 02:17:55 41° WSW 02:20:13 70° NW 02:26:48 10° NNE
NOSS 3-4 (C) 3.6 02:18:01 42° SW 02:20:18 71° NW 02:26:54 10° NNE
SL-08 R/B 4.5 02:18:53 50° SSW 02:20:32 71° W 02:26:50 10° N
Okean 3 4.4 02:16:54 10° NNW 02:20:24 36° WNW 02:20:24 36° WNW
NOSS 3-2 (A) 4.0 02:14:27 10° NW 02:21:56 67° WSW 02:25:29 36° S
NPP 4.3 02:21:54 10° NNE 02:27:04 46° E 02:28:45 35° SE
Cosmos 1190 Rocket 4.3 02:25:53 10° NNW 02:31:05 62° ENE 02:33:29 31° SE
Cosmos 1371 Rocket 4.2 02:37:07 49° SW 02:38:24 65° WNW 02:43:45 10° NNE
CRYOSAT 2 4.3 02:34:11 10° N 02:39:02 75° W 02:39:55 58° SSW
Cosmos 2056 Rocket 3.4 02:38:19 54° SSW 02:39:34 86° WNW 02:44:51 10° NNE
Cosmos 2218 Rocket 4.5 02:37:59 37° WSW 02:39:53 48° WNW 02:46:00 10° N
BREEZE-M DEB (TANK) 3.6 02:30:09 10° WNW 02:39:57 58° SW 02:40:42 51° S
Cosmos 1339 Rocket 4.3 02:33:55 10° N 02:40:01 79° W 02:42:10 43° S
IRAS Rocket 4.4 02:35:29 10° NNE 02:40:59 64° ESE 02:42:54 40° SSE
GP-B 4.0 02:37:35 10° NNE 02:41:50 43° E 02:43:18 32° SE
Meteor 1-20 Rocket 4.5 02:41:32 37° SSE 02:43:48 65° E 02:49:32 10° NNE
ERS-2 2.8 02:41:04 10° NNE 02:44:38 44° E 02:44:57 42° ESE
Cosmos 1825 4.3 02:45:14 17° WNW 02:45:14 17° WNW 02:47:33 10° NNW
Meteor 2-19 Rocket 4.4 02:43:48 43° SSW 02:45:55 76° W 02:52:07 10° N
Cosmos 407 Rocket 3.7 02:41:43 10° NNW 02:46:53 69° ENE 02:49:42 27° SSE
CZ-2D R/B 4.3 02:43:50 10° NE 02:47:31 18° E 02:51:13 10° SE
Cosmos 1812 3.1 02:45:00 10° N 02:48:51 60° E 02:49:35 49° SE
Cosmos 676 Rocket 4.4 02:49:36 10° NNW 02:54:45 60° ENE 02:58:32 18° SE
Cosmos 1844 Rocket 3.1 02:58:18 33° SSE 03:00:37 55° ESE 03:06:10 10° NNE
Okean 1 3.3 02:58:47 10° N 03:02:47 79° E 03:03:47 49° SSE
Cosmos 2263 Rocket 3.3 03:00:53 23° W 03:03:21 33° WNW 03:08:28 10° N
SL-27 R/B 2.6 02:59:58 10° NNW 03:03:38 74° ENE 03:04:27 51° SE
Cosmos 909 Rocket 4.4 03:01:27 32° SW 03:04:33 65° NW 03:11:57 10° NNE
Cosmos 967 Rocket 4.5 03:03:06 36° SSW 03:05:59 83° ESE 03:12:29 10° NNE
IRS-1C 4.2 03:01:38 10° NNE 03:07:00 72° ESE 03:09:25 33° S
Cosmos 1844 4.4 03:05:37 27° SSE 03:08:22 47° ESE 03:13:50 10° NE
NOSS 2-2 (E) 4.4 03:07:43 31° SSE 03:08:52 37° ESE 03:13:13 10° NE
RESURS DK-1 3.8 03:12:15 24° W 03:13:23 27° WNW 03:16:58 10° N
SL-24 DEB 4.3 03:09:39 10° N 03:14:16 67° W 03:15:46 41° SSW
Abrixas rocket 3.4 03:16:30 28° WNW 03:17:42 39° NNW 03:20:54 10° NE
COSMOS 2406 3.2 03:13:16 10° NNW 03:19:00 65° WSW 03:22:29 24° S
Cosmos 1867 4.5 03:15:12 10° NW 03:19:49 28° WSW 03:19:56 28° WSW
Cosmos 1300 Rocket 3.6 03:18:47 43° SW 03:20:00 64° W 03:24:21 10° N
Cosmos 1954 Rocket 4.0 03:16:48 10° NNW 03:22:00 81° ENE 03:26:29 14° SSE
CBERS 1 LM4 rocket 4.3 03:17:18 10° NNE 03:22:15 88° WNW 03:24:23 34° SSW
Cosmos 2278 Rocket 3.1 03:18:50 20° SSE 03:22:17 40° ESE 03:27:34 10° NE
USA 161 2.0 03:23:19 44° SE 03:23:55 56° ENE 03:26:48 10° N
ATLAS 5 CENTAUR R/B 4.0 03:19:26 10° NNW 03:24:54 36° NE 03:30:41 10° ESE
Iridium 4 Rocket 4.4 03:21:06 10° NNW 03:25:11 30° W 03:26:21 27° WSW
CZ-4C R/B 4.1 03:22:35 10° WNW 03:27:51 21° WSW 03:28:37 21° WSW
USA 234 3.3 03:23:18 10° SSE 03:29:40 55° SW 03:36:04 10° NW
Resurs 1-4 Rocket 2.9 03:27:21 10° NNE 03:32:28 46° E 03:36:39 15° SSE
SL-08 R/B 3.9 03:32:29 31° SW 03:34:07 41° W 03:38:46 10° NNW
Cosmos 1602 3.6 03:34:36 35° S 03:36:10 87° E 03:40:02 10° N
ATLAS 2A CENTAUR R/B 4.0 03:38:20 23° SW 03:42:23 34° S 04:09:14 10° ESE
CENTAUR R/B 3.0 03:36:20 10° NW 03:44:14 82° WSW 03:52:32 10° SSE
ARIANE 5 R/B 2.5 03:39:48 10° NNE 03:44:49 81° ESE 03:48:13 21° S
Cosmos 1452 Rocket 3.9 03:42:56 26° SW 03:45:38 51° WNW 03:50:47 10° N
Cosmos 1934 Rocket 4.0 03:42:14 23° SSW 03:46:13 67° W 03:52:22 10° N
Meteor 2-4 Rocket 4.0 03:41:14 10° N 03:46:37 65° E 03:51:54 10° SSE
Cosmos 1356 4.1 03:47:47 20° SSE 03:49:58 54° E 03:53:27 10° NNE
Cosmos 1633 2.6 03:48:47 25° S 03:50:46 76° E 03:54:24 10° N
ADEOS 3.9 03:46:32 10° N 03:51:37 53° WNW 03:54:43 23° SW
Okean 1-7 Rocket 4.5 03:51:53 10° NNW 03:55:59 33° W 03:57:55 23° SW
Cosmos 1023 Rocket 4.3 03:51:07 10° NNW 03:56:13 75° WSW 04:01:16 10° SSE
Cosmos 1420 Rocket 4.0 03:53:20 22° SSW 03:56:49 80° WNW 04:02:08 10° NNE
Cosmos 1536 2.8 03:57:35 24° SSW 03:59:58 69° W 04:04:02 10° N
Okean 1 Rocket 4.3 03:59:23 20° WSW 04:01:15 27° WNW 04:05:03 10° NNW
COSMOS 2487 2.4 03:57:59 10° NNW 04:01:38 77° WSW 04:05:13 10° SSE
SME Rocket 2.8 03:59:44 10° SSE 04:03:28 89° ENE 04:07:35 10° NNW
UNKNOWN OBJECT B 3.2 04:00:54 10° NNE 04:04:58 64° E 04:08:33 13° S
CZ-2D R/B 4.3 04:01:08 10° NNE 04:04:58 44° E 04:08:51 10° S
Cosmos 1461 3.1 04:04:34 21° SSW 04:07:45 90° WNW 04:12:25 10° NNE
SL-16 R/B 2.5 04:03:04 10° S 04:09:16 69° WSW 04:15:29 10° NNW
Okean O Rocket 2.8 04:05:26 10° NNE 04:09:32 39° E 04:13:35 10° SSE
Gbstr 26 Del rocket 3.2 04:08:35 17° WSW 04:11:25 51° NNW 04:15:05 10° NE
Cosmos 1140 Rocket 3.7 04:11:40 10° NNW 04:16:36 48° WSW 04:21:30 10° S
ERS-2 4.4 04:16:18 10° NW 04:18:02 13° WNW 04:19:46 10° W
NOSS 2-2 (D) 4.0 04:16:07 18° WSW 04:19:06 52° NW 04:23:50 10° NNE
Cosmos 1605 Rocket 4.3 04:15:16 15° SSW 04:20:12 51° WNW 04:26:19 10° N
EO 1 Del DPAF 3.8 04:21:45 13° SSW 04:24:55 39° W 04:28:36 10° NNW
CZ-2C R/B 4.2 04:20:28 10° SSE 04:25:10 69° ENE 04:29:56 10° N
Cosmos 1833 Rocket 4.1 04:19:56 10° N 04:25:17 42° ENE 04:30:35 10° SE
Cosmos 1626 Rocket 4.3 04:21:43 10° N 04:26:01 54° E 04:30:18 10° SSE
Cosmos 1455 Rocket 3.1 04:21:55 11° SSW 04:26:06 75° W 04:30:34 10° N
CZ-2D R/B 2.4 04:22:36 10° N 04:27:57 58° WNW 04:33:03 11° SSW
Cosmos 1025 Rocket 3.9 04:24:27 10° NNW 04:28:13 30° W 04:31:24 13° SSW
Cosmos 1850 Rocket 4.2 04:23:14 10° NNW 04:28:18 51° WSW 04:33:23 10° S
Cosmos 1741 Rocket 4.2 04:25:00 10° NNW 04:30:06 51° WSW 04:35:08 10° S
NOSS 2-2 (C) 4.5 04:30:09 13° WSW 04:33:37 39° NW 04:38:13 10° NNE
Cosmos 1400 Rocket 3.8 04:40:16 12° SW 04:43:22 30° WNW 04:46:51 10° NNW
Cosmos 1844 Rocket 4.2 04:40:24 10° WSW 04:44:52 23° NW 04:49:21 10° N
PAYLOAD B 4.4 04:43:16 10° NNE 04:48:53 84° ESE 04:54:29 10° SSW
APEX 2.6 04:46:38 10° SSW 04:49:28 84° ESE 04:52:47 10° NNE
USA 129 3.0 04:55:01 10° SSW 04:56:49 23° W 04:58:35 10° NW
Cosmos 2173 Rocket 4.0 04:51:02 10° SSW 04:57:05 67° W 05:03:14 10° N
Cosmos 1802 Rocket 4.0 04:57:50 10° SSW 05:03:57 68° W 05:10:04 10° N
CZ-4B DEB 4.3 04:58:39 10° NNE 05:04:15 84° WNW 05:09:49 10° SSW
Cosmos 2297 4.0 04:59:30 10° SW 05:05:04 57° WNW 05:10:41 10° NNE
Cosmos 2278 Rocket 3.3 05:01:32 10° WSW 05:06:27 30° NW 05:11:26 10° N
BREEZE-M DEB (TANK) 4.1 05:03:34 10° NW 05:06:45 21° N 05:08:39 10° ENE
